Year,Month,Day,Hour,Minute,Value (Times are PST for temperature in C)
2021,04,19,00,00,1.00
2021,04,19,00,01,1.00
2021,04,19,00,02,1.00
2021,04,19,00,03,0.90
2021,04,19,00,04,0.90
2021,04,19,00,05,0.90
2021,04,19,00,06,0.90
2021,04,19,00,07,0.90
2021,04,19,00,08,0.80
2021,04,19,00,09,0.80
2021,04,19,00,10,0.80
2021,04,19,00,11,0.80
2021,04,19,00,12,0.80
2021,04,19,00,13,0.80
2021,04,19,00,14,0.70
2021,04,19,00,15,0.70
2021,04,19,00,16,0.70
2021,04,19,00,17,0.70
2021,04,19,00,18,0.70
2021,04,19,00,19,0.60
2021,04,19,00,20,0.60
2021,04,19,00,21,0.60
2021,04,19,00,22,0.60
2021,04,19,00,23,0.50
2021,04,19,00,24,0.50
2021,04,19,00,25,0.50
2021,04,19,00,26,0.40
2021,04,19,00,27,0.40
2021,04,19,00,28,0.40
2021,04,19,00,29,0.30
2021,04,19,00,30,0.30
2021,04,19,00,31,0.30
2021,04,19,00,32,0.30
2021,04,19,00,33,0.20
2021,04,19,00,34,0.20
2021,04,19,00,35,0.20
2021,04,19,00,36,0.20
2021,04,19,00,37,0.10
2021,04,19,00,38,0.10
2021,04,19,00,39,0.10
2021,04,19,00,40,0.10
2021,04,19,00,41,0.00
2021,04,19,00,42,0.00
2021,04,19,00,43,0.00
2021,04,19,00,44,0.00
2021,04,19,00,45,-0.10
2021,04,19,00,46,-0.10
2021,04,19,00,47,-0.10
2021,04,19,00,48,-0.10
2021,04,19,00,49,-0.10
2021,04,19,00,50,-0.10
2021,04,19,00,51,-0.20
2021,04,19,00,52,-0.20
2021,04,19,00,53,-0.20
2021,04,19,00,54,-0.20
2021,04,19,00,55,-0.20
2021,04,19,00,56,-0.30
2021,04,19,00,57,-0.30
2021,04,19,00,58,-0.30
2021,04,19,00,59,-0.30
2021,04,19,01,00,-0.30
2021,04,19,01,01,-0.30
2021,04,19,01,02,-0.30
2021,04,19,01,03,-0.30
2021,04,19,01,04,-0.30
2021,04,19,01,05,-0.30
2021,04,19,01,06,-0.30
2021,04,19,01,07,-0.30
2021,04,19,01,08,-0.30
2021,04,19,01,09,-0.30
2021,04,19,01,10,-0.30
2021,04,19,01,11,-0.40
2021,04,19,01,12,-0.40
2021,04,19,01,13,-0.40
2021,04,19,01,14,-0.40
2021,04,19,01,15,-0.40
2021,04,19,01,16,-0.40
2021,04,19,01,17,-0.40
2021,04,19,01,18,-0.40
2021,04,19,01,19,-0.40
2021,04,19,01,20,-0.40
2021,04,19,01,21,-0.50
2021,04,19,01,22,-0.50
2021,04,19,01,23,-0.50
2021,04,19,01,24,-0.60
2021,04,19,01,25,-0.60
2021,04,19,01,26,-0.60
2021,04,19,01,27,-0.60
2021,04,19,01,28,-0.60
2021,04,19,01,29,-0.60
2021,04,19,01,30,-0.60
2021,04,19,01,31,-0.70
2021,04,19,01,32,-0.70
2021,04,19,01,33,-0.70
2021,04,19,01,34,-0.70
2021,04,19,01,35,-0.70
2021,04,19,01,36,-0.70
2021,04,19,01,37,-0.70
2021,04,19,01,38,-0.70
2021,04,19,01,39,-0.70
2021,04,19,01,40,-0.70
2021,04,19,01,41,-0.70
2021,04,19,01,42,-0.70
2021,04,19,01,43,-0.70
2021,04,19,01,44,-0.70
2021,04,19,01,45,-0.70
2021,04,19,01,46,-0.70
2021,04,19,01,47,-0.70
2021,04,19,01,48,-0.60
2021,04,19,01,49,-0.60
2021,04,19,01,50,-0.60
2021,04,19,01,51,-0.70
2021,04,19,01,52,-0.70
2021,04,19,01,53,-0.70
2021,04,19,01,54,-0.70
2021,04,19,01,55,-0.70
2021,04,19,01,56,-0.70
2021,04,19,01,57,-0.70
2021,04,19,01,58,-0.70
2021,04,19,01,59,-0.70
2021,04,19,02,00,-0.70
2021,04,19,02,01,-0.70
2021,04,19,02,02,-0.70
2021,04,19,02,03,-0.80
2021,04,19,02,04,-0.80
2021,04,19,02,05,-0.80
2021,04,19,02,06,-0.80
2021,04,19,02,07,-0.80
2021,04,19,02,08,-0.80
2021,04,19,02,09,-0.90
2021,04,19,02,10,-0.90
2021,04,19,02,11,-0.90
2021,04,19,02,12,-0.90
2021,04,19,02,13,-1.00
2021,04,19,02,14,-1.00
2021,04,19,02,15,-1.00
2021,04,19,02,16,-1.00
2021,04,19,02,17,-1.00
2021,04,19,02,18,-1.10
2021,04,19,02,19,-1.10
2021,04,19,02,20,-1.10
2021,04,19,02,21,-1.10
2021,04,19,02,22,-1.10
2021,04,19,02,23,-1.10
2021,04,19,02,24,-1.10
2021,04,19,02,25,-1.20
2021,04,19,02,26,-1.20
2021,04,19,02,27,-1.20
2021,04,19,02,28,-1.10
2021,04,19,02,29,-1.20
2021,04,19,02,30,-1.20
2021,04,19,02,31,-1.20
2021,04,19,02,32,-1.20
2021,04,19,02,33,-1.20
2021,04,19,02,34,-1.20
2021,04,19,02,35,-1.20
2021,04,19,02,36,-1.30
2021,04,19,02,37,-1.30
2021,04,19,02,38,-1.30
2021,04,19,02,39,-1.30
2021,04,19,02,40,-1.30
2021,04,19,02,41,-1.30
2021,04,19,02,42,-1.30
2021,04,19,02,43,-1.30
2021,04,19,02,44,-1.30
2021,04,19,02,45,-1.30
2021,04,19,02,46,-1.30
2021,04,19,02,47,-1.30
2021,04,19,02,48,-1.40
2021,04,19,02,49,-1.40
2021,04,19,02,50,-1.40
2021,04,19,02,51,-1.40
2021,04,19,02,52,-1.40
2021,04,19,02,53,-1.40
2021,04,19,02,54,-1.40
2021,04,19,02,55,-1.40
2021,04,19,02,56,-1.40
2021,04,19,02,57,-1.40
2021,04,19,02,58,-1.40
2021,04,19,02,59,-1.50
2021,04,19,03,00,-1.50
2021,04,19,03,01,-1.50
2021,04,19,03,02,-1.50
2021,04,19,03,03,-1.60
2021,04,19,03,04,-1.60
2021,04,19,03,05,-1.60
2021,04,19,03,06,-1.60
2021,04,19,03,07,-1.60
2021,04,19,03,08,-1.60
2021,04,19,03,09,-1.60
2021,04,19,03,10,-1.70
2021,04,19,03,11,-1.70
2021,04,19,03,12,-1.70
2021,04,19,03,13,-1.70
2021,04,19,03,14,-1.70
2021,04,19,03,15,-1.60
2021,04,19,03,16,-1.70
2021,04,19,03,17,-1.70
2021,04,19,03,18,-1.70
2021,04,19,03,19,-1.70
2021,04,19,03,20,-1.70
2021,04,19,03,21,-1.70
2021,04,19,03,22,-1.70
2021,04,19,03,23,-1.70
2021,04,19,03,24,-1.70
2021,04,19,03,25,-1.70
2021,04,19,03,26,-1.70
2021,04,19,03,27,-1.70
2021,04,19,03,28,-1.70
2021,04,19,03,29,-1.70
2021,04,19,03,30,-1.70
2021,04,19,03,31,-1.70
2021,04,19,03,32,-1.70
2021,04,19,03,33,-1.70
2021,04,19,03,34,-1.70
2021,04,19,03,35,-1.70
2021,04,19,03,36,-1.70
2021,04,19,03,37,-1.70
2021,04,19,03,38,-1.70
2021,04,19,03,39,-1.70
2021,04,19,03,40,-1.80
2021,04,19,03,41,-1.80
2021,04,19,03,42,-1.80
2021,04,19,03,43,-1.80
2021,04,19,03,44,-1.80
2021,04,19,03,45,-1.80
2021,04,19,03,46,-1.80
2021,04,19,03,47,-1.80
2021,04,19,03,48,-1.80
2021,04,19,03,49,-1.90
2021,04,19,03,50,-1.90
2021,04,19,03,51,-1.90
2021,04,19,03,52,-1.90
2021,04,19,03,53,-1.90
2021,04,19,03,54,-1.90
2021,04,19,03,55,-2.00
2021,04,19,03,56,-2.00
2021,04,19,03,57,-2.00
2021,04,19,03,58,-2.10
2021,04,19,03,59,-2.10
2021,04,19,04,00,-2.10
2021,04,19,04,01,-2.10
2021,04,19,04,02,-2.10
2021,04,19,04,03,-2.10
2021,04,19,04,04,-2.10
2021,04,19,04,05,-2.20
2021,04,19,04,06,-2.10
2021,04,19,04,07,-2.10
2021,04,19,04,08,-2.20
2021,04,19,04,09,-2.10
2021,04,19,04,10,-2.20
2021,04,19,04,11,-2.10
2021,04,19,04,12,-2.10
2021,04,19,04,13,-2.10
2021,04,19,04,14,-2.20
2021,04,19,04,15,-2.20
2021,04,19,04,16,-2.20
2021,04,19,04,17,-2.20
2021,04,19,04,18,-2.20
2021,04,19,04,19,-2.20
2021,04,19,04,20,-2.20
2021,04,19,04,21,-2.20
2021,04,19,04,22,-2.20
2021,04,19,04,23,-2.30
2021,04,19,04,24,-2.30
2021,04,19,04,25,-2.30
2021,04,19,04,26,-2.30
2021,04,19,04,27,-2.30
2021,04,19,04,28,-2.30
2021,04,19,04,29,-2.30
2021,04,19,04,30,-2.40
2021,04,19,04,31,-2.40
2021,04,19,04,32,-2.40
2021,04,19,04,33,-2.40
2021,04,19,04,34,-2.40
2021,04,19,04,35,-2.40
2021,04,19,04,36,-2.40
2021,04,19,04,37,-2.40
2021,04,19,04,38,-2.50
2021,04,19,04,39,-2.50
2021,04,19,04,40,-2.50
2021,04,19,04,41,-2.50
2021,04,19,04,42,-2.60
2021,04,19,04,43,-2.60
2021,04,19,04,44,-2.60
2021,04,19,04,45,-2.60
2021,04,19,04,46,-2.60
2021,04,19,04,47,-2.70
2021,04,19,04,48,-2.70
2021,04,19,04,49,-2.70
2021,04,19,04,50,-2.70
2021,04,19,04,51,-2.70
2021,04,19,04,52,-2.70
2021,04,19,04,53,-2.70
2021,04,19,04,54,-2.70
2021,04,19,04,55,-2.80
2021,04,19,04,56,-2.80
2021,04,19,04,57,-2.80
2021,04,19,04,58,-2.80
2021,04,19,04,59,-2.80
2021,04,19,05,00,-2.80
2021,04,19,05,01,-2.80
2021,04,19,05,02,-2.80
2021,04,19,05,03,-2.80
2021,04,19,05,04,-2.90
2021,04,19,05,05,-2.90
2021,04,19,05,06,-2.90
2021,04,19,05,07,-2.90
2021,04,19,05,08,-2.90
2021,04,19,05,09,-2.80
2021,04,19,05,10,-2.80
2021,04,19,05,11,-2.80
2021,04,19,05,12,-2.80
2021,04,19,05,13,-2.80
2021,04,19,05,14,-2.80
2021,04,19,05,15,-2.80
2021,04,19,05,16,-2.80
2021,04,19,05,17,-2.80
2021,04,19,05,18,-2.80
2021,04,19,05,19,-2.90
2021,04,19,05,20,-2.90
2021,04,19,05,21,-2.90
2021,04,19,05,22,-2.90
2021,04,19,05,23,-2.90
2021,04,19,05,24,-2.90
2021,04,19,05,25,-2.90
2021,04,19,05,26,-2.90
2021,04,19,05,27,-3.00
2021,04,19,05,28,-3.00
2021,04,19,05,29,-3.00
2021,04,19,05,30,-3.00
2021,04,19,05,31,-3.10
2021,04,19,05,32,-3.10
2021,04,19,05,33,-3.10
2021,04,19,05,34,-3.10
2021,04,19,05,35,-3.10
2021,04,19,05,36,-3.10
2021,04,19,05,37,-3.20
2021,04,19,05,38,-3.20
2021,04,19,05,39,-3.20
2021,04,19,05,40,-3.20
2021,04,19,05,41,-3.20
2021,04,19,05,42,-3.20
2021,04,19,05,43,-3.20
2021,04,19,05,44,-3.20
2021,04,19,05,45,-3.20
2021,04,19,05,46,-3.20
2021,04,19,05,47,-3.20
2021,04,19,05,48,-3.20
2021,04,19,05,49,-3.20
2021,04,19,05,50,-3.20
2021,04,19,05,51,-3.20
2021,04,19,05,52,-3.20
2021,04,19,05,53,-3.20
2021,04,19,05,54,-3.30
2021,04,19,05,55,-3.30
2021,04,19,05,56,-3.30
2021,04,19,05,57,-3.30
2021,04,19,05,58,-3.30
2021,04,19,05,59,-3.30
2021,04,19,06,00,-3.30
2021,04,19,06,01,-3.30
2021,04,19,06,02,-3.30
2021,04,19,06,03,-3.40
2021,04,19,06,04,-3.40
2021,04,19,06,05,-3.40
2021,04,19,06,06,-3.40
2021,04,19,06,07,-3.40
2021,04,19,06,08,-3.40
2021,04,19,06,09,-3.50
2021,04,19,06,10,-3.50
2021,04,19,06,11,-3.50
2021,04,19,06,12,-3.50
2021,04,19,06,13,-3.60
2021,04,19,06,14,-3.60
2021,04,19,06,15,-3.60
2021,04,19,06,16,-3.60
2021,04,19,06,17,-3.60
2021,04,19,06,18,-3.60
2021,04,19,06,19,-3.60
2021,04,19,06,20,-3.60
2021,04,19,06,21,-3.60
2021,04,19,06,22,-3.60
2021,04,19,06,23,-3.60
2021,04,19,06,24,-3.60
2021,04,19,06,25,-3.60
2021,04,19,06,26,-3.60
2021,04,19,06,27,-3.60
2021,04,19,06,28,-3.60
2021,04,19,06,29,-3.60
2021,04,19,06,30,-3.60
2021,04,19,06,31,-3.70
2021,04,19,06,32,-3.70
2021,04,19,06,33,-3.70
2021,04,19,06,34,-3.70
2021,04,19,06,35,-3.70
2021,04,19,06,36,-3.70
2021,04,19,06,37,-3.70
2021,04,19,06,38,-3.70
2021,04,19,06,39,-3.70
2021,04,19,06,40,-3.70
2021,04,19,06,41,-3.70
2021,04,19,06,42,-3.70
2021,04,19,06,43,-3.70
2021,04,19,06,44,-3.80
2021,04,19,06,45,-3.80
2021,04,19,06,46,-3.80
2021,04,19,06,47,-3.80
2021,04,19,06,48,-3.80
2021,04,19,06,49,-3.80
2021,04,19,06,50,-3.80
2021,04,19,06,51,-3.80
2021,04,19,06,52,-3.80
2021,04,19,06,53,-3.80
2021,04,19,06,54,-3.80
2021,04,19,06,55,-3.80
2021,04,19,06,56,-3.80
2021,04,19,06,57,-3.90
2021,04,19,06,58,-3.90
2021,04,19,06,59,-3.80
2021,04,19,07,00,-3.80
2021,04,19,07,01,-3.80
2021,04,19,07,02,-3.80
2021,04,19,07,03,-3.80
2021,04,19,07,04,-3.80
2021,04,19,07,05,-3.80
2021,04,19,07,06,-3.80
2021,04,19,07,07,-3.90
2021,04,19,07,08,-3.90
2021,04,19,07,09,-3.90
2021,04,19,07,10,-3.90
2021,04,19,07,11,-3.90
2021,04,19,07,12,-3.80
2021,04,19,07,13,-3.80
2021,04,19,07,14,-3.80
2021,04,19,07,15,-3.80
2021,04,19,07,16,-3.80
2021,04,19,07,17,-3.80
2021,04,19,07,18,-3.80
2021,04,19,07,19,-3.90
2021,04,19,07,20,-3.90
2021,04,19,07,21,-3.80
2021,04,19,07,22,-3.80
2021,04,19,07,23,-3.80
2021,04,19,07,24,-3.80
2021,04,19,07,25,-3.80
2021,04,19,07,26,-3.80
2021,04,19,07,27,-3.80
2021,04,19,07,28,-3.80
2021,04,19,07,29,-3.80
2021,04,19,07,30,-3.80
2021,04,19,07,31,-3.80
2021,04,19,07,32,-3.80
2021,04,19,07,33,-3.80
2021,04,19,07,34,-3.80
2021,04,19,07,35,-3.90
2021,04,19,07,36,-3.90
2021,04,19,07,37,-3.90
2021,04,19,07,38,-3.90
2021,04,19,07,39,-3.90
2021,04,19,07,40,-3.90
2021,04,19,07,41,-3.90
2021,04,19,07,42,-3.90
2021,04,19,07,43,-3.90
2021,04,19,07,44,-3.90
2021,04,19,07,45,-3.90
2021,04,19,07,46,-3.90
2021,04,19,07,47,-3.90
2021,04,19,07,48,-3.90
2021,04,19,07,49,-3.80
2021,04,19,07,50,-3.80
2021,04,19,07,51,-3.80
2021,04,19,07,52,-3.80
2021,04,19,07,53,-3.80
2021,04,19,07,54,-3.80
2021,04,19,07,55,-3.70
2021,04,19,07,56,-3.70
2021,04,19,07,57,-3.70
2021,04,19,07,58,-3.70
2021,04,19,07,59,-3.70
2021,04,19,08,00,-3.70
2021,04,19,08,01,-3.70
2021,04,19,08,02,-3.70
2021,04,19,08,03,-3.70
2021,04,19,08,04,-3.70
2021,04,19,08,05,-3.70
2021,04,19,08,06,-3.70
2021,04,19,08,07,-3.70
2021,04,19,08,08,-3.70
2021,04,19,08,09,-3.80
2021,04,19,08,10,-3.80
2021,04,19,08,11,-3.80
2021,04,19,08,12,-3.80
2021,04,19,08,13,-3.80
2021,04,19,08,14,-3.80
2021,04,19,08,15,-3.80
2021,04,19,08,16,-3.80
2021,04,19,08,17,-3.80
2021,04,19,08,18,-3.80
2021,04,19,08,19,-3.80
2021,04,19,08,20,-3.80
2021,04,19,08,21,-3.70
2021,04,19,08,22,-3.70
2021,04,19,08,23,-3.70
2021,04,19,08,24,-3.70
2021,04,19,08,25,-3.70
2021,04,19,08,26,-3.70
2021,04,19,08,27,-3.70
2021,04,19,08,28,-3.60
2021,04,19,08,29,-3.60
2021,04,19,08,30,-3.60
2021,04,19,08,31,-3.60
2021,04,19,08,32,-3.60
2021,04,19,08,33,-3.50
2021,04,19,08,34,-3.50
2021,04,19,08,35,-3.50
2021,04,19,08,36,-3.50
2021,04,19,08,37,-3.50
2021,04,19,08,38,-3.50
2021,04,19,08,39,-3.50
2021,04,19,08,40,-3.40
2021,04,19,08,41,-3.40
2021,04,19,08,42,-3.40
2021,04,19,08,43,-3.40
2021,04,19,08,44,-3.40
2021,04,19,08,45,-3.40
2021,04,19,08,46,-3.50
2021,04,19,08,47,-3.50
2021,04,19,08,48,-3.50
2021,04,19,08,49,-3.50
2021,04,19,08,50,-3.50
2021,04,19,08,51,-3.50
2021,04,19,08,52,-3.50
2021,04,19,08,53,-3.50
2021,04,19,08,54,-3.50
2021,04,19,08,55,-3.50
2021,04,19,08,56,-3.50
2021,04,19,08,57,-3.50
2021,04,19,08,58,-3.50
2021,04,19,08,59,-3.50
2021,04,19,09,00,-3.50
2021,04,19,09,01,-3.50
2021,04,19,09,02,-3.50
2021,04,19,09,03,-3.50
2021,04,19,09,04,-3.50
2021,04,19,09,05,-3.50
2021,04,19,09,06,-3.50
2021,04,19,09,07,-3.40
2021,04,19,09,08,-3.40
2021,04,19,09,09,-3.40
2021,04,19,09,10,-3.40
2021,04,19,09,11,-3.40
2021,04,19,09,12,-3.40
2021,04,19,09,13,-3.40
2021,04,19,09,14,-3.30
2021,04,19,09,15,-3.30
2021,04,19,09,16,-3.30
2021,04,19,09,17,-3.30
2021,04,19,09,18,-3.30
2021,04,19,09,19,-3.20
2021,04,19,09,20,-3.20
2021,04,19,09,21,-3.20
2021,04,19,09,22,-3.10
2021,04,19,09,23,-3.00
2021,04,19,09,24,-2.90
2021,04,19,09,25,-2.70
2021,04,19,09,26,-2.60
2021,04,19,09,27,-2.40
2021,04,19,09,28,-2.20
2021,04,19,09,29,-2.10
2021,04,19,09,30,-1.90
2021,04,19,09,31,-1.80
2021,04,19,09,32,-1.70
2021,04,19,09,33,-1.50
2021,04,19,09,34,-1.40
2021,04,19,09,35,-1.30
2021,04,19,09,36,-1.10
2021,04,19,09,37,-1.00
2021,04,19,09,38,-0.90
2021,04,19,09,39,-0.80
2021,04,19,09,40,-0.60
2021,04,19,09,41,-0.50
2021,04,19,09,42,-0.40
2021,04,19,09,43,-0.30
2021,04,19,09,44,-0.30
2021,04,19,09,45,-0.20
2021,04,19,09,46,-0.10
2021,04,19,09,47,0.00
2021,04,19,09,48,0.10
2021,04,19,09,49,0.20
2021,04,19,09,50,0.20
2021,04,19,09,51,0.30
2021,04,19,09,52,0.30
2021,04,19,09,53,0.40
2021,04,19,09,54,0.50
2021,04,19,09,55,0.60
2021,04,19,09,56,0.70
2021,04,19,09,57,0.80
2021,04,19,09,58,0.80
2021,04,19,09,59,0.90
2021,04,19,10,00,0.90
2021,04,19,10,01,1.00
2021,04,19,10,02,1.00
2021,04,19,10,03,1.10
2021,04,19,10,04,1.10
2021,04,19,10,05,1.20
2021,04,19,10,06,1.20
2021,04,19,10,07,1.30
2021,04,19,10,08,1.30
2021,04,19,10,09,1.40
2021,04,19,10,10,1.50
2021,04,19,10,11,1.60
2021,04,19,10,12,1.70
2021,04,19,10,13,1.80
2021,04,19,10,14,1.90
2021,04,19,10,15,2.00
2021,04,19,10,16,2.10
2021,04,19,10,17,2.20
2021,04,19,10,18,2.20
2021,04,19,10,19,2.30
2021,04,19,10,20,2.40
2021,04,19,10,21,2.40
2021,04,19,10,22,2.50
2021,04,19,10,23,2.60
2021,04,19,10,24,2.70
2021,04,19,10,25,2.70
2021,04,19,10,26,2.80
2021,04,19,10,27,2.80
2021,04,19,10,28,2.80
2021,04,19,10,29,2.80
2021,04,19,10,30,2.90
2021,04,19,10,31,3.00
2021,04,19,10,32,3.00
2021,04,19,10,33,3.10
2021,04,19,10,34,3.20
2021,04,19,10,35,3.30
2021,04,19,10,36,3.40
2021,04,19,10,37,3.50
2021,04,19,10,38,3.60
2021,04,19,10,39,3.60
2021,04,19,10,40,3.70
2021,04,19,10,41,3.80
2021,04,19,10,42,3.90
2021,04,19,10,43,4.00
2021,04,19,10,44,4.10
2021,04,19,10,45,4.20
2021,04,19,10,46,4.40
2021,04,19,10,47,4.50
2021,04,19,10,48,4.60
2021,04,19,10,49,4.70
2021,04,19,10,50,4.80
2021,04,19,10,51,4.80
2021,04,19,10,52,4.80
2021,04,19,10,53,4.80
2021,04,19,10,54,4.70
2021,04,19,10,55,4.70
2021,04,19,10,56,4.80
2021,04,19,10,57,4.80
2021,04,19,10,58,4.90
2021,04,19,10,59,4.90
2021,04,19,11,00,5.00
2021,04,19,11,01,5.10
2021,04,19,11,02,5.10
2021,04,19,11,03,5.20
2021,04,19,11,04,5.20
2021,04,19,11,05,5.20
2021,04,19,11,06,5.30
2021,04,19,11,07,5.30
2021,04,19,11,08,5.30
2021,04,19,11,09,5.30
2021,04,19,11,10,5.30
2021,04,19,11,11,5.30
2021,04,19,11,12,5.30
2021,04,19,11,13,5.30
2021,04,19,11,14,5.40
2021,04,19,11,15,5.50
2021,04,19,11,16,5.50
2021,04,19,11,17,5.60
2021,04,19,11,18,5.70
2021,04,19,11,19,5.80
2021,04,19,11,20,5.90
2021,04,19,11,21,6.00
2021,04,19,11,22,6.00
2021,04,19,11,23,6.10
2021,04,19,11,24,6.10
2021,04,19,11,25,6.10
2021,04,19,11,26,6.10
2021,04,19,11,27,6.10
2021,04,19,11,28,6.10
2021,04,19,11,29,6.10
2021,04,19,11,30,6.10
2021,04,19,11,31,6.00
2021,04,19,11,32,6.00
2021,04,19,11,33,5.90
2021,04,19,11,34,5.90
2021,04,19,11,35,5.90
2021,04,19,11,36,5.80
2021,04,19,11,37,5.80
2021,04,19,11,38,5.80
2021,04,19,11,39,5.80
2021,04,19,11,40,5.80
2021,04,19,11,41,5.80
2021,04,19,11,42,5.70
2021,04,19,11,43,5.70
2021,04,19,11,44,5.70
2021,04,19,11,45,5.80
2021,04,19,11,46,5.80
2021,04,19,11,47,5.90
2021,04,19,11,48,5.90
2021,04,19,11,49,6.00
2021,04,19,11,50,6.00
2021,04,19,11,51,6.10
2021,04,19,11,52,6.10
2021,04,19,11,53,6.20
2021,04,19,11,54,6.20
2021,04,19,11,55,6.30
2021,04,19,11,56,6.30
2021,04,19,11,57,6.40
2021,04,19,11,58,6.40
2021,04,19,11,59,6.50
2021,04,19,12,00,6.50
2021,04,19,12,01,6.50
2021,04,19,12,02,6.60
2021,04,19,12,03,6.60
2021,04,19,12,04,6.60
2021,04,19,12,05,6.70
2021,04,19,12,06,6.70
2021,04,19,12,07,6.70
2021,04,19,12,08,6.70
2021,04,19,12,09,6.80
2021,04,19,12,10,6.80
2021,04,19,12,11,6.80
2021,04,19,12,12,6.90
2021,04,19,12,13,6.90
2021,04,19,12,14,7.00
2021,04,19,12,15,7.00
2021,04,19,12,16,7.10
2021,04,19,12,17,7.20
2021,04,19,12,18,7.30
2021,04,19,12,19,7.30
2021,04,19,12,20,7.40
2021,04,19,12,21,7.50
2021,04,19,12,22,7.50
2021,04,19,12,23,7.60
2021,04,19,12,24,7.70
2021,04,19,12,25,7.70
2021,04,19,12,26,7.80
2021,04,19,12,27,7.80
2021,04,19,12,28,7.90
2021,04,19,12,29,7.90
2021,04,19,12,30,8.00
2021,04,19,12,31,8.00
2021,04,19,12,32,8.10
2021,04,19,12,33,8.10
2021,04,19,12,34,8.20
2021,04,19,12,35,8.30
2021,04,19,12,36,8.40
2021,04,19,12,37,8.50
2021,04,19,12,38,8.50
2021,04,19,12,39,8.60
2021,04,19,12,40,8.70
2021,04,19,12,41,8.70
2021,04,19,12,42,8.80
2021,04,19,12,43,8.90
2021,04,19,12,44,8.90
2021,04,19,12,45,9.00
2021,04,19,12,46,9.00
2021,04,19,12,47,9.00
2021,04,19,12,48,8.90
2021,04,19,12,49,8.90
2021,04,19,12,50,8.80
2021,04,19,12,51,8.80
2021,04,19,12,52,8.80
2021,04,19,12,53,8.90
2021,04,19,12,54,8.90
2021,04,19,12,55,9.00
2021,04,19,12,56,9.00
2021,04,19,12,57,9.10
2021,04,19,12,58,9.20
2021,04,19,12,59,9.20
2021,04,19,13,00,9.30
2021,04,19,13,01,9.30
2021,04,19,13,02,9.30
2021,04,19,13,03,9.40
2021,04,19,13,04,9.40
2021,04,19,13,05,9.50
2021,04,19,13,06,9.50
2021,04,19,13,07,9.50
2021,04,19,13,08,9.60
2021,04,19,13,09,9.60
2021,04,19,13,10,9.60
2021,04,19,13,11,9.70
2021,04,19,13,12,9.70
2021,04,19,13,13,9.80
2021,04,19,13,14,9.80
2021,04,19,13,15,9.90
2021,04,19,13,16,10.00
2021,04,19,13,17,10.10
2021,04,19,13,18,10.20
2021,04,19,13,19,10.20
2021,04,19,13,20,10.30
2021,04,19,13,21,10.30
2021,04,19,13,22,10.40
2021,04,19,13,23,10.50
2021,04,19,13,24,10.60
2021,04,19,13,25,10.60
2021,04,19,13,26,10.70
2021,04,19,13,27,10.80
2021,04,19,13,28,10.80
2021,04,19,13,29,10.90
2021,04,19,13,30,10.90
2021,04,19,13,31,10.90
2021,04,19,13,32,10.90
2021,04,19,13,33,10.90
2021,04,19,13,34,10.90
2021,04,19,13,35,10.90
2021,04,19,13,36,10.90
2021,04,19,13,37,11.00
2021,04,19,13,38,11.00
2021,04,19,13,39,11.10
2021,04,19,13,40,11.20
2021,04,19,13,41,11.20
2021,04,19,13,42,11.30
2021,04,19,13,43,11.30
2021,04,19,13,44,11.40
2021,04,19,13,45,11.40
2021,04,19,13,46,11.50
2021,04,19,13,47,11.50
2021,04,19,13,48,11.60
2021,04,19,13,49,11.70
2021,04,19,13,50,11.70
2021,04,19,13,51,11.90
2021,04,19,13,52,12.00
2021,04,19,13,53,12.00
2021,04,19,13,54,12.10
2021,04,19,13,55,12.20
2021,04,19,13,56,12.30
2021,04,19,13,57,12.30
2021,04,19,13,58,12.30
2021,04,19,13,59,12.30
2021,04,19,14,00,12.40
2021,04,19,14,01,12.40
2021,04,19,14,02,12.50
2021,04,19,14,03,12.50
2021,04,19,14,04,12.60
2021,04,19,14,05,12.60
2021,04,19,14,06,12.70
2021,04,19,14,07,12.70
2021,04,19,14,08,12.70
2021,04,19,14,09,12.70
2021,04,19,14,10,12.70
2021,04,19,14,11,12.70
2021,04,19,14,12,12.70
2021,04,19,14,13,12.70
2021,04,19,14,14,12.70
2021,04,19,14,15,12.70
2021,04,19,14,16,12.80
2021,04,19,14,17,12.80
2021,04,19,14,18,12.90
2021,04,19,14,19,13.10
2021,04,19,14,20,13.20
2021,04,19,14,21,13.30
2021,04,19,14,22,13.40
2021,04,19,14,23,13.50
2021,04,19,14,24,13.60
2021,04,19,14,25,13.60
2021,04,19,14,26,13.80
2021,04,19,14,27,13.90
2021,04,19,14,28,14.00
2021,04,19,14,29,14.10
2021,04,19,14,30,14.20
2021,04,19,14,31,14.20
2021,04,19,14,32,14.20
2021,04,19,14,33,14.30
2021,04,19,14,34,14.30
2021,04,19,14,35,14.40
2021,04,19,14,36,14.40
2021,04,19,14,37,14.50
2021,04,19,14,38,14.60
2021,04,19,14,39,14.60
2021,04,19,14,40,14.60
2021,04,19,14,41,14.70
2021,04,19,14,42,14.70
2021,04,19,14,43,14.80
2021,04,19,14,44,14.80
2021,04,19,14,45,14.80
2021,04,19,14,46,14.90
2021,04,19,14,47,14.90
2021,04,19,14,48,15.00
2021,04,19,14,49,15.00
2021,04,19,14,50,15.10
2021,04,19,14,51,15.10
2021,04,19,14,52,15.20
2021,04,19,14,53,15.20
2021,04,19,14,54,15.20
2021,04,19,14,55,15.20
2021,04,19,14,56,15.30
2021,04,19,14,57,15.30
2021,04,19,14,58,15.40
2021,04,19,14,59,15.40
2021,04,19,15,00,15.40
2021,04,19,15,01,15.40
2021,04,19,15,02,15.50
2021,04,19,15,03,15.50
2021,04,19,15,04,15.50
2021,04,19,15,05,15.50
2021,04,19,15,06,15.50
2021,04,19,15,07,15.50
2021,04,19,15,08,15.50
2021,04,19,15,09,15.60
2021,04,19,15,10,15.60
2021,04,19,15,11,15.60
2021,04,19,15,12,15.60
2021,04,19,15,13,15.60
2021,04,19,15,14,15.60
2021,04,19,15,15,15.60
2021,04,19,15,16,15.60
2021,04,19,15,17,15.70
2021,04,19,15,18,15.70
2021,04,19,15,19,15.80
2021,04,19,15,20,15.80
2021,04,19,15,21,15.80
2021,04,19,15,22,15.90
2021,04,19,15,23,15.90
2021,04,19,15,24,15.90
2021,04,19,15,25,15.90
2021,04,19,15,26,15.90
2021,04,19,15,27,15.90
2021,04,19,15,28,16.00
2021,04,19,15,29,16.00
2021,04,19,15,30,16.00
2021,04,19,15,31,16.00
2021,04,19,15,32,16.00
2021,04,19,15,33,16.00
2021,04,19,15,34,16.00
2021,04,19,15,35,16.10
2021,04,19,15,36,16.10
2021,04,19,15,37,16.10
2021,04,19,15,38,16.10
2021,04,19,15,39,16.10
2021,04,19,15,40,16.10
2021,04,19,15,41,16.00
2021,04,19,15,42,16.00
2021,04,19,15,43,16.00
2021,04,19,15,44,15.90
2021,04,19,15,45,16.00
2021,04,19,15,46,16.00
2021,04,19,15,47,16.00
2021,04,19,15,48,16.00
2021,04,19,15,49,16.00
2021,04,19,15,50,16.00
2021,04,19,15,51,16.00
2021,04,19,15,52,15.90
2021,04,19,15,53,15.90
2021,04,19,15,54,15.80
2021,04,19,15,55,15.80
2021,04,19,15,56,15.70
2021,04,19,15,57,15.70
2021,04,19,15,58,15.70
2021,04,19,15,59,15.60
2021,04,19,16,00,15.60
2021,04,19,16,01,15.60
2021,04,19,16,02,15.60
2021,04,19,16,03,15.60
2021,04,19,16,04,15.60
2021,04,19,16,05,15.60
2021,04,19,16,06,15.60
2021,04,19,16,07,15.70
2021,04,19,16,08,15.70
2021,04,19,16,09,15.70
2021,04,19,16,10,15.70
2021,04,19,16,11,15.70
2021,04,19,16,12,15.70
2021,04,19,16,13,15.70
2021,04,19,16,14,15.70
2021,04,19,16,15,15.80
2021,04,19,16,16,15.80
2021,04,19,16,17,15.80
2021,04,19,16,18,15.80
2021,04,19,16,19,15.70
2021,04,19,16,20,15.70
2021,04,19,16,21,15.70
2021,04,19,16,22,15.70
2021,04,19,16,23,15.70
2021,04,19,16,24,15.70
2021,04,19,16,25,15.60
2021,04,19,16,26,15.60
2021,04,19,16,27,15.50
2021,04,19,16,28,15.50
2021,04,19,16,29,15.40
2021,04,19,16,30,15.40
2021,04,19,16,31,15.40
2021,04,19,16,32,15.40
2021,04,19,16,33,15.40
2021,04,19,16,34,15.40
2021,04,19,16,35,15.50
2021,04,19,16,36,15.50
2021,04,19,16,37,15.50
2021,04,19,16,38,15.50
2021,04,19,16,39,15.50
2021,04,19,16,40,15.50
2021,04,19,16,41,15.50
2021,04,19,16,42,15.50
2021,04,19,16,43,15.60
2021,04,19,16,44,15.60
2021,04,19,16,45,15.60
2021,04,19,16,46,15.60
2021,04,19,16,47,15.60
2021,04,19,16,48,15.60
2021,04,19,16,49,15.60
2021,04,19,16,50,15.70
2021,04,19,16,51,15.70
2021,04,19,16,52,15.70
2021,04,19,16,53,15.70
2021,04,19,16,54,15.70
2021,04,19,16,55,15.70
2021,04,19,16,56,15.70
2021,04,19,16,57,15.70
2021,04,19,16,58,15.70
2021,04,19,16,59,15.70
2021,04,19,17,00,15.80
2021,04,19,17,01,15.80
2021,04,19,17,02,15.80
2021,04,19,17,03,15.80
2021,04,19,17,04,15.80
2021,04,19,17,05,15.90
2021,04,19,17,06,15.90
2021,04,19,17,07,15.90
2021,04,19,17,08,15.90
2021,04,19,17,09,15.90
2021,04,19,17,10,15.90
2021,04,19,17,11,15.90
2021,04,19,17,12,15.90
2021,04,19,17,13,15.90
2021,04,19,17,14,15.90
2021,04,19,17,15,15.90
2021,04,19,17,16,15.90
2021,04,19,17,17,15.90
2021,04,19,17,18,15.90
2021,04,19,17,19,15.90
2021,04,19,17,20,16.00
2021,04,19,17,21,16.00
2021,04,19,17,22,16.00
2021,04,19,17,23,16.10
2021,04,19,17,24,16.10
2021,04,19,17,25,16.10
2021,04,19,17,26,16.10
2021,04,19,17,27,16.10
2021,04,19,17,28,16.10
2021,04,19,17,29,16.10
2021,04,19,17,30,16.10